Location: Unspecified
(41.4057°N, 2.1753°E)
Time: 19:22:42
(UTC+02:00)

ISS - Visible Passes

Search period start: 24 April 2014 00:00
Search period end: 04 May 2014 00:00
Orbit: 413 x 418 km, 51.6° (Epoch: 24 April)

Date Brightness Start Highest point End Pass type
(mag) Time Alt. Az. Time Alt. Az. Time Alt. Az.
24 Apr -2.9 21:14:09 10° WNW 21:17:29 63° SW 21:20:47 10° SE visible
25 Apr -0.6 22:03:22 10° W 22:04:58 13° SW 22:06:34 10° SSW visible
26 Apr -1.2 21:13:33 10° W 21:16:14 22° SW 21:18:54 10° S visible
